Location: Newark
(41.6500°N, 71.4833°W)
Time: 08:47:38
(UTC+00:00)

A-11 Canister half - Visible Passes

Search period start: 27 January 2020 00:00
Search period end: 06 February 2020 00:00
Orbit: 1517 x 1683 km, 47.2° (Epoch: 26 January)

Date Brightness Start Highest point End Pass type
(mag) Time Alt. Az. Time Alt. Az. Time Alt. Az.
27 Jan 9.2 08:16:03 60° ENE 08:16:03 60° ENE 08:23:36 10° E visible
27 Jan 9.1 10:14:15 30° WNW 10:19:07 58° SW 10:28:13 10° SE visible
28 Jan 9.7 07:54:33 45° E 07:54:33 45° E 08:00:38 10° E visible
28 Jan 9.0 09:52:46 40° W 09:56:15 61° SW 10:05:23 10° SE visible
29 Jan 10.9 01:06:40 10° S 01:07:05 11° S 01:07:05 11° S visible
29 Jan 10.1 07:33:07 33° E 07:33:07 33° E 07:37:40 10° E visible
29 Jan 8.9 09:31:20 53° W 09:33:23 64° SW 09:42:33 10° SE visible
29 Jan 10.3 11:30:54 10° W 11:36:54 19° SW 11:43:00 10° SSW visible
30 Jan 10.6 00:44:08 10° S 00:46:03 15° SSE 00:46:03 15° SSE visible
30 Jan 10.5 07:11:43 23° E 07:11:43 23° E 07:14:42 10° E visible
30 Jan 8.8 09:09:56 66° SW 09:10:30 67° SW 09:19:42 10° SE visible
30 Jan 10.1 11:08:10 11° W 11:14:06 21° SW 11:20:33 10° S visible
31 Jan 10.4 00:21:40 10° S 00:25:02 17° SSE 00:25:02 17° SSE visible
31 Jan 10.9 02:22:15 10° SW 02:23:17 14° SW 02:23:17 14° SW visible
31 Jan 10.9 06:50:23 15° E 06:50:23 15° E 06:51:44 10° E visible
31 Jan 8.9 08:48:37 66° S 08:48:37 66° S 08:56:51 10° SE visible
31 Jan 10.0 10:46:50 16° W 10:51:18 23° SW 10:58:03 10° S visible
31 Jan 10.3 23:59:15 10° SSE 00:04:02 18° SE 00:04:02 18° SE visible
01 Feb 10.5 01:59:24 10° SW 02:02:17 22° SW 02:02:17 22° SW visible
01 Feb 9.3 08:27:20 52° SE 08:27:20 52° SE 08:33:59 10° SE visible
01 Feb 9.9 10:25:34 21° WSW 10:28:29 25° SW 10:35:32 10° S visible
01 Feb 10.2 23:36:52 10° SSE 23:42:28 17° SE 23:43:01 17° ESE visible
02 Feb 10.0 01:36:32 10° SW 01:41:16 32° SSW 01:41:16 32° SSW visible
02 Feb 9.8 08:06:07 37° SE 08:06:07 37° SE 08:11:07 10° SE visible
02 Feb 9.8 10:04:22 26° WSW 10:05:41 26° SW 10:12:58 10° S visible
02 Feb 10.3 23:14:34 10° SSE 23:19:40 16° SE 23:21:59 14° ESE visible
03 Feb 9.5 01:13:42 10° SW 01:20:14 43° S 01:20:14 43° S visible
03 Feb 11.2 03:18:19 10° WSW 03:18:29 11° WSW 03:18:29 11° WSW visible
03 Feb 10.3 07:44:58 25° SE 07:44:58 25° SE 07:48:15 10° SE visible
03 Feb 9.7 09:43:12 28° SW 09:43:12 28° SW 09:50:23 10° S visible
03 Feb 10.4 22:52:22 10° SSE 22:56:51 14° ESE 23:00:56 11° E visible
04 Feb 9.2 00:50:53 10° SSW 00:59:11 51° SSE 00:59:11 51° SSE visible
04 Feb 10.8 02:55:20 10° WSW 02:57:26 19° WSW 02:57:26 19° WSW visible
04 Feb 10.8 07:23:51 16° ESE 07:23:51 16° ESE 07:25:21 10° ESE visible
04 Feb 9.8 09:22:06 28° SSW 09:22:06 28° SSW 09:27:46 10° S visible
04 Feb 10.5 22:30:20 10° SE 22:34:03 13° ESE 22:37:44 10° E visible
05 Feb 9.1 00:28:04 10° SSW 00:37:19 50° SE 00:38:04 49° SE visible
05 Feb 10.3 02:32:21 10° WSW 02:36:19 29° WSW 02:36:19 29° WSW visible
05 Feb 10.1 09:01:02 24° S 09:01:02 24° S 09:05:08 10° SSE visible
